Regional Weather Roundup
Issued by NWS

Home | Current Version | Previous Version | Text Only | Print | Product List | Glossary On
Versions: 1 2 3 4 5 6 7 8 9 10 11 12 13 14 15 16 17 18 19 20 21 22 23 24 25 26 27
000
ASUS45 KBOU 261907
RWRCO

WEATHER ROUNDUP FOR COLORADO
NATIONAL WEATHER SERVICE DENVER/BOULDER CO
1200 PM MST SUN FEB 26 2017

NOTE: "FAIR" INDICATES FEW OR NO CLOUDS BELOW 12000 FEET WITH NO
SIGNIFICANT WEATHER AND/OR OBSTRUCTIONS TO VISIBILITY.

COZ001>005-013-030-031-262000-
...NORTHWEST COLORADO...

CITY           SKY/WX    TMP DP  RH WIND       PRES   REMARKS
CRAIG          FAIR      26   5  40 NE3       29.90F
HAYDEN         FAIR      19   1  45 NE3       29.89F
MEEKER         FAIR      23   8  52 E3        29.90F
MOUNT WERNER   NOT AVBL
STEAMBOAT SPGS FAIR      18   5  57 CALM      29.88F
WALDEN         NOT AVBL
$$

COZ006>008-011-262000-
...WEST CENTRAL VALLEYS...

CITY           SKY/WX    TMP DP  RH WIND       PRES   REMARKS
GRAND JUNCTION FAIR      37   6  27 VRB5      29.95F
MONTROSE       FAIR      36  10  34 VRB5      29.94F
EAGLE          SUNNY     28   3  34 SW12G24   29.91F WCI  18
RIFLE          FAIR      31   8  38 MISG      29.94F
DELTA          FAIR      38   7  27 NE5       29.95F
NUCLA          PTSUNNY   36  10  35 NW7       29.96F
$$

COZ017>023-064>068-262000-
...SOUTHWEST COLORADO...

CITY           SKY/WX    TMP DP  RH WIND       PRES   REMARKS
DURANGO        FAIR      37  11  34 W14       29.90F
CORTEZ         FAIR      37  15  40 VRB3      29.93F
PAGOSA SPRINGS FAIR      33   5  30 SW13G22   29.88S WCI  24
TELLURIDE      CLOUDY    24   1  36 W9        29.88S WCI  14
WOLF CREEK PAS LGT SNOW   9   5  85 SW14G22   29.83F VSB 1   WCI  -8
$$

COZ009-010-012-014-032>034-037-058>063-262000-
...CENTRAL COLORADO...

CITY           SKY/WX    TMP DP  RH WIND       PRES   REMARKS
ASPEN          FAIR      25  -2  31 NE6       29.84F WCI  18
BUENA VISTA    FAIR      30 -10  17 W26G36    29.78F WCI  16
COPPER MTN     NOT AVBL
BERTHOUD PASS  FAIR       0 -11  60 NW24G32   29.64R WCI -24
COTTONWOOD PAS FAIR      21 -13  21 W25G46    29.73S WCI   4
GUNNISON       FAIR      18   9  68 E3        29.90F
KREMMLING      FAIR      30  10  43 E6        29.86F WCI  24
LEADVILLE      FAIR      16  -8  34 NW8       29.76S WCI   5
MONARCH PASS     N/A      3   0  85 W39G47    29.82R WCI -24
SALIDA         FAIR      34  -3  20 SW22G30   29.88S WCI  22
SUNLIGHT       NOT AVBL
WILKERSON PASS FAIR      19 -13  23 W8G22     29.71R WCI   9
$$

COZ069>075-262000-
...SAN LUIS VALLEY/SANGRE DE CRISTO MOUNTAINS...

CITY           SKY/WX    TMP DP  RH WIND       PRES   REMARKS
ALAMOSA        FAIR      30   6  36 VRB6      29.84F WCI  24
LA VETA PASS   FAIR      23   5  46 SW25G41   29.72F WCI   7
SAGUACHE       FAIR      32   0  25 NW20G31   29.84F WCI  20
$$

COZ035-036-038>040-262000-
...NORTHERN COLORADO FRONT RANGE...

CITY           SKY/WX    TMP DP  RH WIND       PRES   REMARKS
DENVER INTL AP FAIR      37  -4  17 SW7       29.78F
DMNS CITY PARK   N/A     39  -8  13 E10       29.77F
AURORA         MOSUNNY   38  -6  15 SW8       29.78F
FRONT RANGE AP SUNNY     37  -6  15 CALM      29.79
ERIE MUNI ARPT FAIR      37  -2  18 E3        29.79F
BOULDER MUN AP FAIR      34  12  40 N5        29.78F WCI  30
CENTENNIAL     FAIR      35  -7  16 E6        29.76F WCI  30
BROOMFIELD     SUNNY     37   0  20 SE3       29.78F
FORT COLLINS   FAIR      36  12  37 E8        29.81F
LONGMONT       FAIR      37  14  38 N7        29.82F
$$

COZ041-046-047-076>085-087-088-262000-
...PIKES PEAK/PALMER DIVIDE AND SOUTHERN FOOTHILLS...

CITY           SKY/WX    TMP DP  RH WIND       PRES   REMARKS
COLO. SPRINGS  FAIR      36  -9  14 VRB5      29.77F
A. F. ACADEMY  FAIR      37  -7  15 S14       29.74F
SCHRIEVER AFB  FAIR      36  -8  15 S8        29.78F
ELLICOTT       NOT AVBL
FALCON         FAIR      36 -10  14 CALM      29.77F
FORT CARSON    FAIR      40  -6  14 N9        29.75F
LIMON          FAIR      37   2  22 S12       29.81F
MONUMENT HILL  FAIR      32  -6  19 S3        29.76F
TRINIDAD       FAIR      45   3  17 VRB5      29.79F
$$

COZ042>045-048>051-090-091-262000-
...NORTHEAST COLORADO...

CITY           SKY/WX    TMP DP  RH WIND       PRES   REMARKS
GREELEY ARPT   FAIR      36   9  32 SE10G16   29.83F
AKRON          FAIR      34  12  40 SE10      29.84F WCI  26
BURLINGTON     FAIR      41   8  25 SE9G17    29.86F
WRAY           NOT AVBL
STERLING       FAIR      32  18  55 SW6       29.86F WCI  26
HOLYOKE        FAIR      41  14  33 NW3       29.89F
FORT MORGAN    FAIR      35  15  45 E9G16     29.85F WCI  28
$$

COZ086-089-092>099-262000-
...SOUTHEAST COLORADO...

CITY           SKY/WX    TMP DP  RH WIND       PRES   REMARKS
PUEBLO         FAIR      45   0  15 S13       29.79F
LA JUNTA       FAIR      46   8  21 MISG      29.82F
LAMAR          FAIR      44   6  21 E7        29.85F
SPRINGFIELD      N/A     47   3  16 S14       29.83F
$$




USA.gov is the U.S. government's official web portal to all federal, state and local government web resources and services.